Flag for Switzerland Weather past 2 weeks in Bern, Bern, Switzerland

Now
66 °F

Scattered clouds.


Feels Like: 66 °F
Forecast: 47 / 62 °F
Wind: 10 mph from Southwest

Location: Bern / Belp

Current Time: Sep 21, 2014 at 3:01:47 PM

Latest Report: Sep 21, 2014 at 2:20 PM


Visibility: N/A

Pressure: 30.04 "Hg

Humidity: 73%

Dew point: 57 °F

Location of BernLocation

Historic Weather in Bern — Graph

°F

Bern temperature yesterday

Maximum temperature yesterday: 75 °F (at 2:50 PM)
Minimum temperature yesterday: 57 °F (at 3:50 AM)
Average temperature yesterday: 63 °F

Past Weeks' High & Low Weather Summary

 TemperatureHumidityPressure
High81 °F (Sep 8, 2:50 PM)100% (Sep 6, 11:50 PM)30.12 "Hg (Sep 6, 11:50 PM)
Low43 °F (Sep 14, 6:20 AM)44% (Sep 7, 5:50 PM)29.86 "Hg (Sep 17, 2:50 PM)
Average61 °F83%30.00 "Hg
* Reported Sep 6 1:20 PM — Sep 21 1:50 PM, Bern, Weather by CustomWeather, © 2014

Note: Actual official high and low records may vary slightly from our data, if they occured in-between our weather recording intervals... More about our weather records

Advertising

Bern weather history for previous 24 hours

 ConditionsComfort  
Time TempWeatherWind HumidityBarometerVisibility
1:50 PM
Sep 21
66 °FScattered clouds.7 mph78%30.04 "HgN/A
1:20 PM70 °FBroken clouds.6 mph69%30.04 "HgN/A
12:50 PM66 °FScattered clouds.6 mph78%30.04 "HgN/A
12:20 PM64 °FBroken clouds.10 mph83%30.07 "HgN/A
11:20 AM66 °FScattered clouds.10 mph78%30.07 "HgN/A
10:50 AM63 °FBroken clouds.7 mph83%30.07 "HgN/A
10:20 AM61 °FBroken clouds.7 mph88%30.07 "HgN/A
9:50 AM61 °FBroken clouds.10 mph88%30.07 "HgN/A
9:20 AM61 °FScattered clouds.8 mph88%30.07 "HgN/A
8:50 AM59 °FScattered clouds.5 mph94%30.07 "HgN/A
8:20 AM59 °FBroken clouds.9 mph94%30.07 "HgN/A
7:50 AM59 °FScattered showers. Partly cloudy.6 mph94%30.09 "HgN/A
7:20 AM57 °FScattered showers. Low clouds.7 mph100%30.07 "HgN/A
6:50 AM57 °FPassing clouds.6 mph94%30.07 "HgN/A
6:20 AM57 °FPassing clouds.9 mph94%30.07 "HgN/A
5:50 AM55 °FPassing clouds.5 mph100%30.07 "HgN/A
5:20 AM57 °FThunderstorms. Passing clouds.6 mph94%30.07 "HgN/A
4:50 AM59 °FThunderstorms. Passing clouds.8 mph88%30.07 "HgN/A
4:20 AM61 °FThundershowers. Partly cloudy.9 mph88%30.07 "HgN/A
3:50 AM61 °FPartly cloudy.9 mph88%30.07 "HgN/A
3:20 AM59 °FPassing clouds.8 mph94%30.07 "HgN/A
2:50 AM61 °FPassing clouds.5 mph88%30.07 "HgN/A
2:20 AM61 °FThundershowers. Passing clouds.7 mph88%30.07 "HgN/A
1:50 AM61 °FMostly cloudy.10 mph88%30.07 "HgN/A
1:20 AM63 °FPartly cloudy.6 mph83%30.07 "HgN/A
12:50 AM63 °FPartly cloudy.7 mph88%30.09 "HgN/A
12:20 AM63 °FPartly cloudy.6 mph88%30.07 "HgN/A
11:50 PM
Sep 20
64 °FThundershowers. Partly cloudy.6 mph78%30.07 "HgN/A
11:20 PM64 °FPartly cloudy.6 mph83%30.07 "HgN/A
10:20 PM63 °FOvercast.3 mph88%30.07 "HgN/A
9:50 PM63 °FOvercast.5 mph88%30.07 "HgN/A
9:20 PM63 °FPassing clouds.3 mph88%30.07 "HgN/A
8:50 PM64 °FPartly cloudy.3 mph78%30.07 "HgN/A
8:20 PM66 °FPartly sunny.5 mph73%30.04 "HgN/A
7:50 PM66 °FPartly sunny.5 mph73%30.04 "HgN/A
3:20 PM75 °FPassing clouds.8 mph54%30.04 "HgN/A
Weather by CustomWeather, © 2014

See weather overviewHow to use our weather pages